Starlink 32665

operational
NORAD ID: 62203 Int'l Des: 2024-229 Owner: SPXS Country: US Constellation: starlink
LEOCIRCULAR

Starlink 32665について

説明を読み込み中...

リアルタイム位置

3D地球を読み込み中...

次回通過

高度履歴

Altitude vs Time

uPlot chart will show altitude changes over time

軌道要素

1 62203U 24229M 25303.25939040 .00045296 00000-0 16433-2 0 9992
2 62203 43.0012 287.3246 0001608 261.6927 98.3743 15.27623203 50612
Epoch: Oct 30, 2025 • Age: 10 hours

現在のステータス

高度 483.3 km
速度 7.63 km/s
衛星直下点 23.86°N, 37.03°E
打ち上げ日 Dec 4, 2024
運用期間 0.9 years
タイプ internet

技術仕様

分類 Payload
質量 730.00 kg
乾燥質量 700.00 kg
総質量 730.00 kg
長さ 0.30 m
直径 4.10 m
スパン 29.00 m
形状 Box + pan
製造者 SPXS
バスタイプ Starlink V2M
フェーズステータス In Orbit
所有者/国 SPXS/US

大規模コンステレーション

Loading constellations...